カタログに戻る

NOAA 16 DEB

運用中PO
NORAD 42367·DEBRIS·🇺🇸 United States

打ち上げ Sep 21, 2000 から Vandenberg Space Force Base

Loading…

次のパス (今後24時間)

TLE

最新Source: Space-Track

元期: Sep 13, 2026, 08:15 UTC

1 42367U 00055RK  26256.34392004  .00010786  00000-0  24207-2 0  9997
2 42367  98.8882  30.1364 0017174 177.6103 182.5178 14.56649573540280

AllMySatでNOAA 16 DEBをリアルタイム追跡

Download on the App Store